Hourly Weather Bolshoe Syrokvashino

Today, 30 July, Friday

Time Temperature Precipitation Wind Pressure Humidity
00:00 +19°C° 0.2 mm 1 mps 733 mmHg 93%
01:00 +19°C° 0.2 mm 1 mps 733 mmHg 95%
02:00 +19°C° 0 mm 1 mps 733 mmHg 97%
03:00 +19°C° 0.3 mm 1 mps 733 mmHg 98%
04:00 +19°C° 0.3 mm 1 mps 733 mmHg 98%
05:00 +19°C° 0.3 mm 1 mps 733 mmHg 98%
06:00 +19°C° 0.9 mm 1 mps 733 mmHg 98%
07:00 +19°C° 0.9 mm 1 mps 733 mmHg 98%
08:00 +20°C° 0.9 mm 1 mps 733 mmHg 98%
09:00 +20°C° 0.2 mm 2 mps 733 mmHg 87%
10:00 +23°C° 0.2 mm 2 mps 733 mmHg 77%
11:00 +24°C° 0.2 mm 3 mps 733 mmHg 66%
12:00 +25°C° 0 mm 3 mps 733 mmHg 61%
13:00 +25°C° 0 mm 3 mps 733 mmHg 56%
14:00 +25°C° 0 mm 3 mps 733 mmHg 51%
15:00 +24°C° 0 mm 3 mps 733 mmHg 54%
16:00 +22°C° 0 mm 3 mps 733 mmHg 58%
17:00 +21°C° 0 mm 3 mps 733 mmHg 61%
18:00 +20°C° 0 mm 3 mps 733 mmHg 66%
19:00 +19°C° 0 mm 3 mps 733 mmHg 71%
20:00 +18°C° 0 mm 2 mps 732 mmHg 76%
21:00 +18°C° 0 mm 2 mps 732 mmHg 73%
22:00 +18°C° 0 mm 3 mps 733 mmHg 70%
23:00 +18°C° 0 mm 3 mps 733 mmHg 67%

Tomorrow, 31 July, Saturday

Time Temperature Precipitation Wind Pressure Humidity
00:00 +17°C° 0 mm 3 mps 732 mmHg 71%
01:00 +16°C° 0 mm 3 mps 732 mmHg 74%
02:00 +16°C° 0 mm 3 mps 732 mmHg 77%
03:00 +14°C° 0 mm 3 mps 732 mmHg 78%
04:00 +14°C° 0 mm 3 mps 732 mmHg 78%
05:00 +14°C° 0 mm 3 mps 732 mmHg 79%
06:00 +17°C° 0 mm 4 mps 732 mmHg 71%
07:00 +19°C° 0 mm 5 mps 732 mmHg 64%
08:00 +21°C° 0 mm 5 mps 733 mmHg 56%
09:00 +22°C° 0 mm 5 mps 733 mmHg 51%
10:00 +23°C° 0 mm 6 mps 733 mmHg 47%
11:00 +24°C° 0 mm 6 mps 733 mmHg 42%
12:00 +26°C° 0 mm 6 mps 733 mmHg 42%
13:00 +26°C° 0 mm 5 mps 733 mmHg 42%
14:00 +26°C° 0 mm 5 mps 733 mmHg 43%
15:00 +26°C° 0 mm 5 mps 734 mmHg 44%
16:00 +26°C° 0 mm 4 mps 734 mmHg 46%
17:00 +26°C° 0 mm 3 mps 734 mmHg 48%
18:00 +24°C° 0 mm 3 mps 734 mmHg 55%
19:00 +21°C° 0 mm 2 mps 734 mmHg 62%
20:00 +19°C° 0 mm 2 mps 734 mmHg 70%
21:00 +18°C° 0 mm 2 mps 734 mmHg 70%
22:00 +18°C° 0 mm 2 mps 735 mmHg 70%
23:00 +17°C° 0 mm 2 mps 735 mmHg 70%

Day after tomorrow, 1 August, Sunday

Time Temperature Precipitation Wind Pressure Humidity
00:00 +17°C° 0 mm 2 mps 735 mmHg 69%
01:00 +17°C° 0 mm 2 mps 735 mmHg 68%
02:00 +17°C° 0 mm 2 mps 735 mmHg 67%
03:00 +17°C° 0.3 mm 2 mps 735 mmHg 76%
04:00 +16°C° 0.3 mm 2 mps 735 mmHg 84%
05:00 +16°C° 0.3 mm 2 mps 735 mmHg 93%
06:00 +16°C° 0.7 mm 2 mps 735 mmHg 95%
07:00 +17°C° 0.7 mm 2 mps 734 mmHg 96%
08:00 +17°C° 0.7 mm 2 mps 734 mmHg 98%
09:00 +18°C° 0.3 mm 2 mps 734 mmHg 97%
10:00 +18°C° 0.3 mm 3 mps 734 mmHg 96%
11:00 +19°C° 0.3 mm 3 mps 735 mmHg 96%
12:00 +21°C° 0.1 mm 3 mps 734 mmHg 85%
13:00 +24°C° 0.1 mm 3 mps 734 mmHg 75%
14:00 +26°C° 0.1 mm 3 mps 734 mmHg 64%
15:00 +26°C° 0.1 mm 3 mps 734 mmHg 64%
16:00 +26°C° 0.1 mm 3 mps 734 mmHg 64%
17:00 +25°C° 0.1 mm 2 mps 734 mmHg 63%
18:00 +24°C° 0 mm 2 mps 734 mmHg 69%
19:00 +21°C° 0 mm 2 mps 734 mmHg 75%
20:00 +20°C° 0 mm 2 mps 734 mmHg 80%
21:00 +19°C° 0 mm 2 mps 734 mmHg 79%
22:00 +18°C° 0 mm 2 mps 734 mmHg 77%
23:00 +19°C° 0 mm 1 mps 734 mmHg 75%

2 August, Monday

Time Temperature Precipitation Wind Pressure Humidity
00:00 +18°C° 0 mm 1 mps 734 mmHg 75%
01:00 +18°C° 0 mm 1 mps 734 mmHg 75%
02:00 +18°C° 0 mm 1 mps 734 mmHg 75%
03:00 +18°C° 0 mm 1 mps 734 mmHg 77%
04:00 +17°C° 0 mm 2 mps 733 mmHg 79%
05:00 +16°C° 0 mm 2 mps 733 mmHg 81%
06:00 +18°C° 0.1 mm 2 mps 733 mmHg 79%
07:00 +19°C° 0.1 mm 2 mps 732 mmHg 76%
08:00 +21°C° 0.1 mm 2 mps 732 mmHg 74%
09:00 +20°C° 1.5 mm 2 mps 732 mmHg 82%
10:00 +19°C° 1.5 mm 2 mps 732 mmHg 90%
11:00 +18°C° 1.5 mm 2 mps 731 mmHg 97%
12:00 +19°C° 0.6 mm 2 mps 731 mmHg 96%
13:00 +20°C° 0.6 mm 2 mps 731 mmHg 95%
14:00 +20°C° 0.6 mm 2 mps 730 mmHg 94%
15:00 +20°C° 1.1 mm 3 mps 730 mmHg 92%
16:00 +20°C° 1.1 mm 4 mps 729 mmHg 91%
17:00 +20°C° 1.1 mm 5 mps 729 mmHg 90%
18:00 +19°C° 0 mm 4 mps 730 mmHg 91%
19:00 +18°C° 0 mm 4 mps 730 mmHg 93%
20:00 +17°C° 0 mm 4 mps 731 mmHg 94%
21:00 +16°C° 0 mm 3 mps 731 mmHg 95%
22:00 +14°C° 0 mm 3 mps 731 mmHg 95%
23:00 +14°C° 0 mm 3 mps 732 mmHg 95%

3 August, Tuesday

Time Temperature Precipitation Wind Pressure Humidity
00:00 +14°C° 0 mm 3 mps 732 mmHg 96%
01:00 +14°C° 0 mm 2 mps 732 mmHg 97%
02:00 +14°C° 0 mm 2 mps 733 mmHg 98%
03:00 +14°C° 0 mm 2 mps 733 mmHg 98%
04:00 +14°C° 0 mm 2 mps 733 mmHg 97%
05:00 +14°C° 0 mm 2 mps 734 mmHg 97%
06:00 +14°C° 0 mm 3 mps 734 mmHg 88%
07:00 +16°C° 0 mm 3 mps 734 mmHg 78%
08:00 +18°C° 0 mm 4 mps 735 mmHg 69%
09:00 +19°C° 0 mm 4 mps 735 mmHg 64%
10:00 +20°C° 0 mm 4 mps 735 mmHg 59%
11:00 +21°C° 0 mm 4 mps 736 mmHg 54%
12:00 +21°C° 0.1 mm 4 mps 736 mmHg 56%
13:00 +21°C° 0.1 mm 4 mps 736 mmHg 59%
14:00 +21°C° 0.1 mm 4 mps 736 mmHg 61%
15:00 +20°C° 0.1 mm 3 mps 736 mmHg 61%
16:00 +20°C° 0.1 mm 3 mps 737 mmHg 60%
17:00 +20°C° 0.1 mm 3 mps 737 mmHg 60%
18:00 +19°C° 0 mm 2 mps 737 mmHg 65%
19:00 +17°C° 0 mm 2 mps 737 mmHg 71%
20:00 +16°C° 0 mm 1 mps 738 mmHg 77%
21:00 +15°C° 0 mm 1 mps 738 mmHg 76%
22:00 +15°C° 0 mm 1 mps 738 mmHg 76%
23:00 +15°C° 0 mm 1 mps 738 mmHg 75%

4 August, Wednesday

Time Temperature Precipitation Wind Pressure Humidity
00:00 +15°C° 0 mm 1 mps 739 mmHg 75%
01:00 +15°C° 0 mm 1 mps 739 mmHg 75%
02:00 +15°C° 0 mm 1 mps 739 mmHg 75%
03:00 +15°C° 0 mm 1 mps 739 mmHg 77%
04:00 +15°C° 0 mm 1 mps 739 mmHg 79%
05:00 +15°C° 0 mm 1 mps 740 mmHg 81%
06:00 +16°C° 0 mm 1 mps 740 mmHg 77%
07:00 +18°C° 0 mm 1 mps 740 mmHg 72%
08:00 +19°C° 0 mm 1 mps 740 mmHg 68%
09:00 +20°C° 0 mm 1 mps 741 mmHg 66%
10:00 +20°C° 0 mm 1 mps 741 mmHg 64%
11:00 +20°C° 0 mm 2 mps 741 mmHg 62%
12:00 +20°C° 0 mm 2 mps 741 mmHg 60%
13:00 +22°C° 0 mm 1 mps 741 mmHg 57%
14:00 +23°C° 0 mm 1 mps 741 mmHg 54%
15:00 +22°C° 0 mm 1 mps 741 mmHg 56%
16:00 +22°C° 0 mm 1 mps 741 mmHg 57%
17:00 +22°C° 0 mm 1 mps 741 mmHg 59%
18:00 +20°C° 0 mm 1 mps 741 mmHg 65%
19:00 +19°C° 0 mm 1 mps 741 mmHg 71%
20:00 +16°C° 0 mm 1 mps 741 mmHg 77%
21:00 +16°C° 0 mm 1 mps 741 mmHg 77%
22:00 +15°C° 0 mm 1 mps 741 mmHg 78%
23:00 +15°C° 0 mm 1 mps 741 mmHg 78%
Show more

We Need Your Consent

Meteoprog and our Service Providers may store and access personal data such as cookies, device identifiers or other similar technologies on your device and process such data to personalise content and ads, as well as provide social media features and to analyse the traffic.

  • Store and/or access information on your device

    Cookies, device identifiers or other information can be stored or accessed on your device for the purposes indicated above.

  • Personalised ads and content, ad and content measurement, audience insights, and products development

    Ads and content can be personalised based on a profile. More data can be added to better personalise ads and content. Ad and content performance can be measured. Insights about the audience who saw the ads and content can be derived. Such data can be used to develop or improve user’s experience, systems and software.

By clicking ‘I Agree’ you will allow the use of indicated cookies, device identifiers, web beacons or other similar technologies. Your settings can be changed in the browser on your device.

For certain purposes, legitimate interests may be relied on, rather than consent. You can read more about this in our Privacy and Cookie Policy.